Wetbulb
61.80 63.44 63.40 63.76 63.81 64.19 65.68 65.91 62.46 62.73 63.90 63.58 61.75 61.53 61.14 61.24 60.59 60.40 60.68 60.75 60.97 60.90 60.50 62.16 62.23 61.16 61.37 61.67 62.26 61.08 60.75 59.80
62.42 61.22 61.77 62.70 63.55 64.10 64.19 63.42 63.04 62.26 61.28 59.48 58.58 58.08 58.94 59.55 59.93 60.20 60.42 59.95 59.10 59.08 58.50 59.48 60.22 59.11 60.54 60.94 60.31 59.64 59.22 60.25
58.52 59.52 60.51 61.24 63.18 63.88 63.04 61.53 59.65 59.61 59.69 58.93 58.85 58.52 58.60 58.94 59.31 58.71 58.54 58.21 57.68 56.95 57.23 56.71 57.81 56.59 58.70 59.10 59.21 57.64 57.82 58.98
56.78 58.02 59.83 60.85 60.74 60.55 59.77 59.21 58.48 58.26 58.51 58.04 57.74 57.99 57.70 56.62 56.59 56.70 57.35 57.59 56.03 55.83 55.64 56.11 57.02 56.90 55.80 57.49 56.91 56.20 53.82 56.12
55.84 56.78 57.59 58.79 58.63 59.09 58.59 57.84 57.21 56.80 57.18 56.60 55.91 54.58 53.53 54.93 55.62 55.91 55.17 55.70 54.59 54.06 54.24 54.49 55.07 55.32 55.36 55.15 53.62 54.91 53.75 51.45
55.51 56.03 56.71 57.52 58.13 58.16 58.24 57.65 56.77 56.73 56.08 55.73 54.97 54.86 55.32 55.87 55.45 54.67 54.41 54.61 53.76 53.13 53.26 53.24 53.47 52.94 53.65 53.64 53.37 51.40 50.82 50.53
55.23 56.09 56.61 56.83 57.81 57.88 57.60 56.53 55.36 55.72 55.31 55.88 55.76 53.45 52.95 51.98 52.32 51.32 51.49 51.72 51.55 52.22 51.44 51.96 52.66 52.47 51.05 50.86 50.90 50.16 48.17 47.84
54.39 54.62 55.35 55.66 55.59 55.90 55.91 55.49 55.40 56.43 56.16 54.93 53.76 53.14 53.26 52.51 51.79 50.88 49.72 49.06 49.36 50.41 50.92 50.81 49.85 50.22 50.31 50.29 48.88 46.12 43.70 41.99
54.03 54.45 55.11 55.04 55.41 56.09 56.48 55.83 54.50 55.43 54.99 54.53 54.70 53.84 52.94 51.95 51.25 49.58 48.38 48.45 49.28 49.78 49.63 49.56 49.36 49.04 48.54 48.02 46.68 46.34 44.75 44.31
53.08 54.16 54.37 55.11 55.45 55.95 55.73 55.22 55.18 55.21 54.85 54.46 53.44 52.68 51.24 50.06 49.35 48.93 48.44 49.00 48.17 48.80 48.72 47.89 47.62 47.14 45.82 45.49 44.55 43.23 43.89 43.40
53.67 54.49 54.79 55.25 55.46 55.75 55.77 55.27 54.63 54.60 54.21 52.87 51.28 50.63 50.19 49.06 48.44 47.79 47.72 47.87 47.77 47.42 47.04 45.68 44.73 44.48 43.99 42.45 42.68 42.98 42.02 42.29
53.67 53.95 53.91 54.79 55.17 55.26 54.69 54.51 53.28 52.20 51.67 50.15 49.38 49.10 48.83 48.18 47.45 47.28 46.84 46.34 45.84 44.92 44.48 43.59 42.80 41.79 41.74 41.56 41.31 41.15 40.45 40.67
53.02 53.01 52.79 52.72 52.64 53.18 53.37 52.55 50.20 50.09 48.88 48.64 47.91 47.86 47.86 47.01 46.50 45.37 44.98 44.86 44.63 43.96 42.75 41.94 41.48 41.48 40.97 40.37 39.99 39.34 38.94 38.44
51.49 51.91 52.49 52.19 51.86 51.79 50.83 50.23 48.74 48.29 48.12 47.21 46.72 46.28 45.90 45.47 44.35 43.98 43.58 43.26 42.94 42.67 42.24 41.16 40.42 40.14 39.60 39.24 38.98 38.80 38.42 38.07
49.80 49.43 49.54 49.51 48.64 47.77 48.72 49.15 49.19 48.36 47.06 46.01 45.28 44.54 44.08 43.63 42.92 42.43 42.26 41.84 40.71 39.82 39.58 39.13 38.86 38.50 38.33 38.16 37.80 36.99 36.42 36.90
48.03 48.08 48.03 47.03 47.18 47.87 47.89 48.35 48.02 47.83 46.24 45.63 44.10 43.45 43.20 42.72 41.68 41.17 41.06 40.23 39.43 39.19 38.69 38.57 38.45 37.92 36.93 36.15 35.73 34.81 34.36 34.80
46.38 46.65 46.19 46.12 46.07 46.24 47.21 47.64 47.38 47.04 45.68 44.36 43.60 42.76 42.19 41.24 40.51 40.00 39.32 38.77 38.51 38.40 37.80 37.53 37.05 36.68 31.92 31.13 31.11 32.33 31.89 32.06
45.83 45.58 45.48 45.55 45.61 45.96 46.15 46.93 47.00 44.94 44.78 43.91 42.78 41.84 41.01 40.03 39.44 38.67 37.90 37.66 37.93 37.07 36.93 36.74 35.82 35.74 30.55 30.00 29.35 30.82 30.19 30.67
44.98 45.28 44.95 44.74 45.09 45.75 46.87 46.61 45.62 44.72 43.48 42.70 42.16 41.17 40.47 39.77 38.57 37.84 37.61 37.58 36.94 36.22 35.93 35.88 34.88 34.36 31.71 29.35 28.26 29.40 29.52 30.01
MSLP
1010.69 1011.65 1012.33 1012.64 1013.05 1013.63 1014.06 1014.81 1015.76 1016.44 1016.66 1017.22 1017.15 1017.33 1017.38 1017.44 1017.39 1017.52 1017.95 1017.96 1018.16 1018.09 1017.76 1017.49 1017.29 1016.97 1016.51 1016.13 1015.86 1015.72 1015.45 1015.12
1011.40 1012.54 1013.06 1013.42 1013.77 1013.89 1013.96 1015.00 1016.37 1016.64 1016.86 1017.20 1017.05 1017.19 1017.35 1017.43 1017.59 1018.00 1018.27 1018.11 1018.23 1018.04 1017.64 1017.16 1016.89 1016.60 1016.26 1016.16 1015.87 1015.49 1015.09 1014.82
1012.72 1013.32 1013.64 1013.85 1014.23 1014.32 1015.17 1016.17 1016.91 1017.27 1017.37 1017.87 1018.18 1018.24 1018.09 1018.09 1017.81 1018.27 1018.20 1018.32 1018.28 1018.00 1017.51 1017.28 1016.88 1016.58 1016.39 1016.16 1015.84 1015.26 1014.78 1014.55
1013.66 1014.06 1014.69 1015.32 1015.75 1015.99 1016.37 1017.13 1017.94 1018.29 1018.21 1018.26 1018.35 1018.17 1018.00 1017.94 1018.18 1018.27 1018.12 1018.47 1018.15 1017.77 1017.57 1017.45 1017.20 1016.88 1016.38 1016.06 1015.89 1015.55 1014.77 1014.33
1014.12 1014.80 1015.54 1016.38 1016.94 1017.29 1017.62 1018.11 1018.44 1018.78 1018.98 1018.87 1019.13 1019.02 1018.84 1019.02 1018.67 1018.47 1018.41 1018.33 1018.01 1017.70 1017.56 1017.64 1017.61 1017.21 1016.75 1016.38 1015.96 1015.92 1015.60 1014.65
1015.25 1015.86 1016.50 1017.18 1017.78 1018.16 1018.31 1018.49 1018.74 1018.91 1019.08 1019.51 1019.62 1019.56 1019.50 1019.36 1018.97 1018.39 1018.24 1017.98 1017.96 1017.74 1017.70 1017.68 1017.77 1017.28 1016.94 1016.81 1016.52 1016.42 1016.30 1015.78
1016.24 1016.72 1017.14 1017.78 1018.32 1018.58 1018.63 1018.53 1018.73 1019.05 1019.13 1019.05 1019.06 1019.23 1019.16 1019.20 1018.81 1018.43 1018.17 1018.29 1018.07 1017.91 1017.85 1017.79 1017.68 1017.32 1017.14 1017.10 1016.91 1016.87 1017.03 1017.27
1016.49 1016.82 1017.29 1018.06 1018.58 1018.75 1018.76 1018.66 1018.50 1018.53 1018.83 1018.98 1019.01 1019.07 1019.00 1018.87 1018.78 1018.69 1018.90 1018.60 1018.35 1018.23 1018.13 1017.94 1017.71 1017.30 1017.07 1017.06 1017.56 1018.15 1018.25 1018.44
1017.18 1017.50 1017.87 1018.14 1018.51 1018.53 1018.72 1018.63 1018.47 1018.17 1018.67 1018.69 1018.75 1018.97 1019.06 1019.13 1019.26 1019.60 1019.50 1019.03 1018.68 1018.29 1018.28 1018.13 1017.68 1017.48 1017.74 1017.85 1017.97 1018.12 1018.25 1018.45
1017.59 1017.74 1018.06 1018.56 1018.59 1018.42 1018.64 1018.56 1018.32 1018.31 1018.67 1018.70 1018.92 1019.21 1019.51 1019.66 1019.80 1019.66 1019.32 1019.07 1018.65 1018.17 1018.05 1018.04 1018.09 1018.05 1018.36 1018.48 1018.45 1018.61 1018.40 1018.34
1017.11 1017.37 1017.70 1018.18 1018.42 1018.49 1018.41 1018.59 1018.50 1018.57 1018.75 1019.06 1019.28 1019.70 1019.74 1019.76 1019.60 1019.40 1019.38 1019.12 1019.02 1018.76 1018.71 1018.92 1018.94 1019.20 1019.29 1019.22 1018.92 1018.60 1018.45 1018.07
1017.09 1017.54 1017.94 1018.12 1018.23 1018.43 1018.62 1018.66 1018.89 1019.15 1019.41 1019.89 1019.95 1019.72 1019.71 1019.74 1019.67 1019.57 1019.79 1020.03 1019.84 1019.75 1019.70 1019.57 1019.56 1019.51 1019.51 1019.32 1018.81 1018.36 1018.07 1017.89
1017.55 1017.86 1018.13 1018.36 1018.62 1018.72 1018.87 1019.39 1020.08 1020.08 1020.30 1020.17 1019.97 1019.79 1019.75 1019.61 1019.63 1020.20 1020.38 1020.44 1020.31 1020.26 1020.09 1019.91 1019.80 1019.63 1019.45 1019.13 1018.74 1018.21 1017.69 1017.22
1018.56 1018.76 1018.74 1018.89 1018.78 1019.35 1020.05 1020.39 1020.63 1020.56 1020.28 1019.92 1019.70 1019.81 1019.96 1019.96 1020.27 1020.56 1020.62 1020.28 1019.93 1019.61 1019.41 1019.22 1018.93 1018.72 1018.41 1018.11 1017.81 1017.53 1017.30 1016.97
1019.22 1019.47 1019.62 1019.69 1020.14 1020.26 1020.17 1020.12 1020.48 1020.64 1020.39 1020.18 1019.93 1020.20 1020.24 1020.17 1020.11 1020.10 1019.98 1019.74 1019.50 1019.32 1019.09 1018.96 1018.76 1018.45 1018.11 1017.73 1017.54 1017.54 1017.24 1016.48
1020.00 1020.20 1020.27 1020.43 1020.06 1019.86 1019.86 1020.00 1020.23 1020.24 1020.32 1019.99 1020.28 1020.29 1020.23 1019.92 1019.94 1019.93 1019.78 1019.57 1019.36 1019.11 1018.91 1018.72 1018.49 1018.22 1018.03 1018.51 1018.45 1018.31 1017.72 1016.87
1021.06 1020.81 1020.74 1020.44 1019.97 1019.79 1019.39 1019.41 1019.33 1019.63 1019.99 1019.82 1020.09 1020.21 1019.99 1019.93 1019.87 1019.69 1019.53 1019.35 1019.15 1019.01 1018.82 1018.57 1018.37 1018.24 1018.82 1019.08 1019.08 1018.63 1018.10 1017.22
1021.12 1020.96 1020.48 1020.15 1019.71 1019.48 1018.94 1018.71 1019.03 1019.35 1019.29 1019.33 1019.39 1019.68 1020.00 1019.84 1019.69 1019.44 1019.22 1019.18 1019.02 1018.86 1018.62 1018.38 1018.37 1018.50 1019.04 1019.12 1019.12 1018.72 1018.19 1017.26
1021.10 1020.63 1020.31 1020.02 1019.66 1019.15 1018.68 1018.61 1018.72 1018.45 1018.57 1018.82 1018.93 1019.60 1019.67 1019.54 1019.41 1019.13 1019.03 1018.89 1018.70 1018.57 1018.40 1018.43 1018.57 1018.59 1018.89 1019.15 1019.09 1018.60 1017.82 1016.95
Wind_Speed
12 6 7 7 5 5 9 10 5 5 4 2 4 3 4 3 4 5 6 6 7 7 8 9 9 9 9 10 10 10 11 11
10 3 3 2 1 7 8 11 6 3 3 3 4 4 6 4 5 4 7 8 9 9 9 9 9 10 10 11 11 12 10 11
6 6 6 3 5 7 10 8 5 1 3 5 4 4 5 5 5 8 8 8 10 10 9 10 10 9 11 11 12 10 11 10
11 12 11 10 8 7 8 9 9 8 6 5 6 5 5 6 9 9 10 11 12 12 11 10 10 10 9 10 11 14 12 11
9 10 11 11 11 10 11 9 8 8 10 6 8 6 8 7 8 9 10 13 13 13 12 11 11 9 11 10 11 11 12 13
9 10 10 11 10 8 7 7 7 7 6 6 6 8 10 12 11 12 10 10 13 13 13 12 12 10 10 11 11 10 10 11
8 8 8 9 7 6 5 6 4 2 1 5 9 8 8 9 9 9 9 10 10 12 14 11 11 10 9 9 10 10 8 8
4 4 6 6 4 4 4 5 8 8 10 8 7 7 10 11 12 10 13 11 10 11 12 11 10 11 11 9 7 6 7 6
5 4 5 5 3 6 8 9 11 8 7 9 9 11 8 9 11 11 10 10 10 13 11 12 14 12 9 6 5 6 4 5
3 2 4 8 10 9 7 10 11 9 8 9 9 10 11 10 11 10 9 12 12 13 14 13 10 8 9 10 6 7 7 8
4 7 8 9 12 10 8 8 10 10 10 9 9 11 11 10 10 13 14 13 15 16 13 10 10 10 10 9 11 10 10 8
10 11 10 11 11 9 9 9 8 9 10 11 10 9 10 11 11 12 14 14 14 12 12 11 10 10 12 12 11 12 10 12
11 12 10 11 12 12 11 10 9 8 8 10 11 10 11 11 11 11 11 12 12 10 10 11 12 11 10 11 13 14 13 13
14 14 15 17 12 11 12 11 9 8 9 10 10 10 12 11 10 10 9 10 10 11 11 11 12 12 12 12 12 12 13 14
11 14 16 14 13 9 10 10 9 9 10 10 11 10 9 8 7 9 10 11 13 13 13 13 13 13 14 14 12 14 16 16
14 16 14 13 12 11 11 8 9 10 10 10 10 8 9 9 10 11 12 12 12 12 12 13 13 12 7 9 11 13 16 18
16 17 15 15 13 14 13 10 11 10 11 11 8 10 9 10 10 11 12 12 13 13 14 14 13 11 9 8 9 12 17 17
17 15 13 14 14 15 15 12 12 9 12 11 10 8 10 10 11 12 12 12 13 13 14 13 13 14 7 8 12 12 15 17
13 13 14 16 17 17 16 13 15 13 12 12 9 9 10 11 11 12 12 12 12 12 12 12 13 12 9 11 15 15 15 18
Wind_Direction
175 174 201 223 239 237 218 149 176 169 153 190 258 239 264 284 320 9 348 317 337 311 301 291 290 288 286 287 292 288 291 286
106 147 104 121 135 211 197 134 80 236 223 310 320 309 329 336 323 17 331 3 322 312 300 295 295 290 301 302 291 286 279 279
114 112 105 130 71 79 68 86 89 331 63 28 5 339 334 315 323 337 314 336 311 301 322 306 302 299 296 290 286 283 279 278
99 90 88 84 79 83 85 85 80 54 24 36 7 332 330 334 341 323 331 327 315 315 309 309 311 303 298 307 305 299 291 285
88 91 89 84 81 79 79 77 78 71 30 37 360 348 339 334 307 319 323 313 312 321 319 320 320 308 305 304 309 321 306 294
71 75 85 85 88 82 75 78 53 58 65 32 356 339 326 323 312 312 315 307 329 322 322 323 314 307 312 308 309 316 313 309
79 85 97 90 76 58 41 7 55 47 269 286 313 313 294 300 306 316 326 328 319 320 319 319 302 300 306 315 306 335 9 335
105 95 78 51 37 31 359 309 298 312 331 329 325 299 314 312 326 334 329 320 321 320 322 311 311 306 301 329 19 19 32 14
84 47 2 352 320 318 323 324 308 321 307 325 332 327 326 332 342 335 320 317 321 324 319 313 305 323 337 347 337 324 338 305
76 341 40 333 321 313 315 310 317 330 321 321 334 341 340 338 336 321 329 326 323 320 316 319 328 337 1 347 330 306 299 293
308 322 336 340 324 318 308 318 315 320 329 341 348 335 337 330 329 334 331 327 329 332 333 336 349 353 344 330 314 299 284 276
319 336 335 319 319 309 317 307 334 336 340 346 329 330 328 333 330 340 351 338 322 338 342 338 336 333 318 302 299 297 292 282
324 328 341 335 330 320 326 353 332 332 331 322 328 332 324 322 341 351 338 329 329 324 318 314 302 306 300 297 303 304 295 296
340 337 333 320 329 351 340 328 319 306 318 319 327 329 327 342 345 331 308 310 308 302 297 295 295 290 286 290 282 275 282 283
337 343 336 335 347 312 297 309 313 310 312 311 323 330 330 317 309 306 314 317 318 319 317 311 309 307 306 304 322 325 308 299
348 332 330 325 303 322 311 327 301 292 303 311 321 312 301 319 329 323 319 317 316 316 313 310 312 313 355 346 327 315 310 308
324 325 322 311 324 311 307 285 296 320 299 307 304 287 319 316 320 318 319 319 323 320 314 312 317 314 69 25 345 315 307 299
322 316 315 317 314 316 308 319 305 292 276 290 281 305 296 310 316 317 319 321 314 315 313 315 323 318 62 7 349 320 308 296
312 315 322 322 317 313 307 323 305 301 293 288 301 289 293 300 306 314 326 313 318 312 314 326 321 317 33 358 338 314 305 299